| time (UTC) | temp C | wind direction | speed KPH | gust KPH | rain 1hr cm | rain 24hr cm | rain mn cm | humidity % | barometer mb |
| 20260507185831 | 18 | 46 | 12.9 | 25.7 | 0.00 | 0.00 | 0.00 | 85 | 1016.2 |
| 20260507185335 | 18 | 22 | 12.9 | 22.5 | 0.00 | 0.00 | 0.00 | 85 | 1016.6 |
| 20260507184841 | 18 | 17 | 12.9 | 24.1 | 0.00 | 0.00 | 0.00 | 85 | 1016.6 |
| 20260507184352 | 18 | 29 | 11.3 | 24.1 | 0.00 | 0.00 | 0.00 | 86 | 1016.8 |
| 20260507183835 | 18 | 350 | 12.9 | 20.9 | 0.00 | 0.00 | 0.00 | 86 | 1017.1 |
| 20260507183320 | 18 | 31 | 6.4 | 19.3 | 0.00 | 0.00 | 0.00 | 86 | 1017.1 |
| 20260507182825 | 18 | 351 | 9.7 | 17.7 | 0.00 | 0.00 | 0.00 | 86 | 1017.4 |
| 20260507182329 | 17 | 339 | 11.3 | 19.3 | 0.00 | 0.00 | 0.00 | 86 | 1017.5 |
| 20260507181837 | 17 | 346 | 6.4 | 19.3 | 0.00 | 0.00 | 0.00 | 86 | 1016.7 |
| 20260507181321 | 17 | 32 | 12.9 | 19.3 | 0.00 | 0.00 | 0.00 | 86 | 1016.9 |
| 20260507180832 | 17 | 44 | 4.8 | 12.9 | 0.00 | 0.00 | 0.00 | 86 | 1017.4 |
| 20260507180342 | 18 | 56 | 4.8 | 14.5 | 0.00 | 0.00 | 0.00 | 86 | 1017.8 |
| 20260507175828 | 18 | 5 | 8.0 | 19.3 | 0.00 | 0.00 | 0.00 | 87 | 1018.1 |
| 20260507175332 | 17 | 314 | 9.7 | 19.3 | 0.00 | 0.00 | 0.00 | 87 | 1018.0 |
| 20260507174839 | 17 | 5 | 8.0 | 17.7 | 0.00 | 0.00 | 0.00 | 87 | 1017.9 |
| 20260507174319 | 17 | 27 | 9.7 | 17.7 | 0.00 | 0.00 | 0.00 | 87 | 1017.1 |
| 20260507173821 | 17 | 53 | 12.9 | 17.7 | 0.00 | 0.00 | 0.00 | 87 | 1017.2 |
| 20260507173333 | 17 | 63 | 8.0 | 19.3 | 0.00 | 0.00 | 0.00 | 87 | 1017.4 |
| 20260507172838 | 17 | 44 | 9.7 | 25.7 | 0.00 | 0.00 | 0.00 | 87 | 1017.1 |
| 20260507172320 | 16 | 10 | 14.5 | 20.9 | 0.00 | 0.00 | 0.00 | 87 | 1017.4 |
| 20260507171825 | 16 | 87 | 9.7 | 17.7 | 0.00 | 0.00 | 0.00 | 87 | 1017.0 |
| 20260507171328 | 16 | 59 | 9.7 | 20.9 | 0.00 | 0.00 | 0.00 | 87 | 1017.2 |
| 20260507170834 | 16 | 344 | 8.0 | 22.5 | 0.00 | 0.00 | 0.00 | 87 | 1017.4 |
| 20260507170319 | 16 | 20 | 9.7 | 22.5 | 0.00 | 0.00 | 0.00 | 87 | 1017.3 |
| 20260507165827 | 16 | 18 | 11.3 | 20.9 | 0.00 | 0.00 | 0.00 | 87 | 1017.4 |
| 20260507165331 | 16 | 51 | 11.3 | 19.3 | 0.00 | 0.00 | 0.00 | 87 | 1017.8 |
| 20260507164818 | 16 | 360 | 12.9 | 17.7 | 0.00 | 0.00 | 0.00 | 87 | 1017.5 |
| 20260507164321 | 16 | 12 | 6.4 | 14.5 | 0.00 | 0.00 | 0.00 | 87 | 1017.6 |
| 20260507163838 | 16 | 57 | 8.0 | 14.5 | 0.00 | 0.00 | 0.00 | 87 | 1017.8 |
| 20260507163344 | 16 | 350 | 4.8 | 12.9 | 0.00 | 0.00 | 0.00 | 87 | 1017.9 |
| 20260507162829 | 16 | 316 | 6.4 | 16.1 | 0.00 | 0.00 | 0.00 | 87 | 1018.3 |
| 20260507162333 | 16 | 348 | 6.4 | 16.1 | 0.00 | 0.00 | 0.00 | 87 | 1018.1 |
| 20260507161837 | 16 | 5 | 4.8 | 16.1 | 0.00 | 0.00 | 0.00 | 87 | 1017.9 |
| 20260507161351 | 15 | 18 | 9.7 | 17.7 | 0.00 | 0.00 | 0.00 | 87 | 1018.1 |
| 20260507160834 | 15 | 39 | 11.3 | 19.3 | 0.00 | 0.00 | 0.00 | 87 | 1017.7 |
| 20260507160344 | 15 | 348 | 14.5 | 20.9 | 0.00 | 0.00 | 0.00 | 87 | 1017.5 |
| 20260507155828 | 16 | 347 | 12.9 | 24.1 | 0.00 | 0.00 | 0.00 | 87 | 1017.6 |
| 20260507155336 | 15 | 11 | 12.9 | 24.1 | 0.00 | 0.00 | 0.00 | 88 | 1017.5 |
| 20260507154845 | 15 | 39 | 16.1 | 22.5 | 0.00 | 0.00 | 0.00 | 88 | 1017.3 |
| 20260507154330 | 15 | 312 | 12.9 | 22.5 | 0.00 | 0.00 | 0.00 | 88 | 1017.4 |
| 20260507153819 | 15 | 32 | 16.1 | 22.5 | 0.00 | 0.00 | 0.00 | 88 | 1017.2 |
| 20260507153327 | 15 | 355 | 12.9 | 24.1 | 0.00 | 0.00 | 0.00 | 88 | 1017.2 |
| 20260507152831 | 15 | 355 | 14.5 | 24.1 | 0.00 | 0.00 | 0.00 | 88 | 1017.2 |
| 20260507152337 | 15 | 355 | 16.1 | 29.0 | 0.00 | 0.00 | 0.00 | 88 | 1016.8 |
| 20260507151844 | 15 | 28 | 16.1 | 29.0 | 0.00 | 0.00 | 0.00 | 88 | 1016.9 |
| 20260507151327 | 15 | 34 | 16.1 | 22.5 | 0.00 | 0.00 | 0.00 | 88 | 1017.2 |
| 20260507150833 | 15 | 24 | 17.7 | 22.5 | 0.00 | 0.00 | 0.00 | 88 | 1017.4 |
| 20260507150323 | 15 | 335 | 11.3 | 22.5 | 0.00 | 0.00 | 0.00 | 88 | 1017.5 |
| 20260507145829 | 15 | 31 | 11.3 | 22.5 | 0.00 | 0.00 | 0.00 | 88 | 1017.4 |
| 20260507145339 | 15 | 32 | 12.9 | 22.5 | 0.00 | 0.00 | 0.00 | 88 | 1017.5 |
| 20260507144845 | 15 | 41 | 11.3 | 24.1 | 0.00 | 0.00 | 0.00 | 88 | 1018.0 |
| 20260507144327 | 15 | 351 | 12.9 | 22.5 | 0.00 | 0.00 | 0.00 | 88 | 1017.8 |
| 20260507143832 | 14 | 40 | 9.7 | 24.1 | 0.00 | 0.00 | 0.00 | 88 | 1017.8 |
| 20260507143319 | 14 | 19 | 9.7 | 27.4 | 0.00 | 0.00 | 0.00 | 88 | 1017.7 |
| 20260507142852 | 14 | 348 | 17.7 | 27.4 | 0.00 | 0.00 | 0.00 | 88 | 1017.6 |
| 20260507142331 | 14 | 344 | 16.1 | 24.1 | 0.00 | 0.00 | 0.00 | 88 | 1017.5 |
| 20260507141836 | 14 | 32 | 12.9 | 24.1 | 0.00 | 0.00 | 0.00 | 88 | 1017.4 |
| 20260507141323 | 14 | 360 | 12.9 | 22.5 | 0.00 | 0.00 | 0.00 | 88 | 1017.6 |
| 20260507140847 | 14 | 13 | 14.5 | 27.4 | 0.00 | 0.00 | 0.00 | 88 | 1017.4 |
| 20260507140334 | 14 | 29 | 12.9 | 27.4 | 0.00 | 0.00 | 0.00 | 88 | 1017.8 |
| 20260507135847 | 14 | 328 | 12.9 | 33.8 | 0.00 | 0.00 | 0.00 | 88 | 1018.1 |
| 20260507135329 | 14 | 5 | 16.1 | 33.8 | 0.00 | 0.00 | 0.00 | 88 | 1018.3 |
| 20260507134832 | 14 | 5 | 14.5 | 29.0 | 0.00 | 0.00 | 0.00 | 88 | 1018.3 |
| 20260507134338 | 14 | 329 | 14.5 | 29.0 | 0.00 | 0.00 | 0.00 | 88 | 1018.4 |
| 20260507133821 | 14 | 10 | 9.7 | 22.5 | 0.00 | 0.00 | 0.00 | 88 | 1018.2 |
| 20260507133333 | 14 | 349 | 11.3 | 22.5 | 0.00 | 0.00 | 0.00 | 88 | 1017.9 |
| 20260507132324 | 14 | 12 | 16.1 | 29.0 | 0.00 | 0.00 | 0.00 | 88 | 1017.5 |
| 20260507131338 | 13 | 33 | 16.1 | 30.6 | 0.00 | 0.00 | 0.00 | 87 | 1017.6 |
| 20260507130823 | 14 | 35 | 17.7 | 29.0 | 0.00 | 0.00 | 0.00 | 87 | 1017.6 |
| 20260507130327 | 14 | 340 | 16.1 | 29.0 | 0.00 | 0.00 | 0.00 | 87 | 1017.9 |
| 20260507125834 | 14 | 346 | 12.9 | 22.5 | 0.00 | 0.00 | 0.00 | 87 | 1017.8 |
| 20260507125318 | 14 | 33 | 11.3 | 29.0 | 0.00 | 0.00 | 0.00 | 87 | 1017.6 |
| 20260507124820 | 14 | 360 | 16.1 | 29.0 | 0.00 | 0.00 | 0.00 | 87 | 1017.5 |
| 20260507124322 | 14 | 5 | 12.9 | 22.5 | 0.00 | 0.00 | 0.00 | 87 | 1017.5 |
| 20260507123854 | 14 | 360 | 11.3 | 24.1 | 0.00 | 0.00 | 0.00 | 87 | 1017.6 |
| 20260507123321 | 14 | 333 | 9.7 | 24.1 | 0.00 | 0.00 | 0.00 | 87 | 1017.3 |
| 20260507122830 | 14 | 355 | 8.0 | 16.1 | 0.00 | 0.00 | 0.00 | 87 | 1017.1 |
| 20260507122336 | 14 | 37 | 6.4 | 14.5 | 0.00 | 0.00 | 0.00 | 87 | 1017.2 |
| 20260507121823 | 14 | 21 | 8.0 | 20.9 | 0.00 | 0.00 | 0.00 | 87 | 1017.3 |
| 20260507121328 | 14 | 45 | 11.3 | 20.9 | 0.00 | 0.00 | 0.00 | 87 | 1017.3 |
| 20260507120833 | 14 | 17 | 9.7 | 22.5 | 0.00 | 0.00 | 0.00 | 87 | 1017.4 |
| 20260507120335 | 14 | 344 | 8.0 | 25.7 | 0.00 | 0.00 | 0.00 | 87 | 1017.3 |
| 20260507115821 | 14 | 9 | 6.4 | 25.7 | 0.00 | 0.00 | 0.00 | 87 | 1017.0 |
| 20260507115321 | 14 | 11 | 12.9 | 25.7 | 0.00 | 0.00 | 0.00 | 87 | 1016.7 |
| 20260507114824 | 14 | 24 | 16.1 | 27.4 | 0.00 | 0.00 | 0.00 | 87 | 1016.4 |
| 20260507114356 | 15 | 41 | 16.1 | 27.4 | 0.00 | 0.00 | 0.00 | 87 | 1016.0 |
| 20260507113823 | 15 | 349 | 12.9 | 27.4 | 0.00 | 0.00 | 0.00 | 87 | 1016.0 |
| 20260507113328 | 15 | 5 | 8.0 | 24.1 | 0.00 | 0.00 | 0.00 | 87 | 1016.1 |
| 20260507112834 | 15 | 339 | 11.3 | 24.1 | 0.00 | 0.00 | 0.00 | 87 | 1016.0 |
| 20260507025326 | 16 | 5 | 11.3 | 20.9 | 0.00 | 0.00 | 0.00 | 85 | 1014.0 |
| 20260507024834 | 16 | 360 | 8.0 | 17.7 | 0.00 | 0.00 | 0.00 | 85 | 1013.9 |
| 20260507024335 | 16 | 346 | 9.7 | 19.3 | 0.00 | 0.00 | 0.00 | 85 | 1013.8 |
| 20260507023820 | 16 | 5 | 9.7 | 19.3 | 0.00 | 0.00 | 0.00 | 85 | 1013.6 |
| 20260507023322 | 16 | 355 | 8.0 | 22.5 | 0.00 | 0.00 | 0.00 | 85 | 1013.8 |
| 20260507022828 | 16 | 348 | 8.0 | 22.5 | 0.00 | 0.00 | 0.00 | 85 | 1013.5 |
| 20260507022328 | 16 | 349 | 9.7 | 20.9 | 0.00 | 0.00 | 0.00 | 85 | 1013.3 |
| 20260507021840 | 16 | 335 | 9.7 | 20.9 | 0.00 | 0.00 | 0.00 | 85 | 1013.3 |
| 20260507021346 | 16 | 346 | 8.0 | 16.1 | 0.00 | 0.00 | 0.00 | 85 | 1013.1 |
| 20260507020850 | 16 | 10 | 9.7 | 20.9 | 0.00 | 0.00 | 0.00 | 85 | 1013.2 |
| 20260507020335 | 16 | 355 | 9.7 | 20.9 | 0.00 | 0.00 | 0.00 | 85 | 1013.0 |
| 20260507015822 | 16 | 5 | 12.9 | 20.9 | 0.00 | 0.00 | 0.00 | 85 | 1013.0 |
| 20260507015324 | 16 | 355 | 11.3 | 20.9 | 0.00 | 0.00 | 0.00 | 85 | 1012.7 |
| 20260507014823 | 16 | 23 | 11.3 | 24.1 | 0.00 | 0.00 | 0.00 | 85 | 1012.9 |
| 20260507014329 | 16 | 355 | 9.7 | 24.1 | 0.00 | 0.00 | 0.00 | 85 | 1012.9 |
| 20260507013843 | 17 | 34 | 11.3 | 20.9 | 0.00 | 0.00 | 0.00 | 85 | 1012.7 |
| 20260507013318 | 17 | 25 | 11.3 | 22.5 | 0.00 | 0.00 | 0.00 | 85 | 1012.7 |
| 20260507012828 | 17 | 327 | 8.0 | 22.5 | 0.00 | 0.00 | 0.00 | 85 | 1012.5 |
| 20260507012333 | 17 | 13 | 9.7 | 16.1 | 0.00 | 0.00 | 0.00 | 85 | 1012.4 |
| 20260507011818 | 17 | 344 | 8.0 | 27.4 | 0.00 | 0.00 | 0.00 | 85 | 1012.2 |
| 20260507011327 | 17 | 360 | 9.7 | 27.4 | 0.00 | 0.00 | 0.00 | 85 | 1012.1 |
| 20260507010831 | 17 | 346 | 12.9 | 24.1 | 0.00 | 0.00 | 0.00 | 85 | 1012.1 |
| 20260507010318 | 17 | 314 | 16.1 | 24.1 | 0.00 | 0.00 | 0.00 | 85 | 1012.0 |
| 20260507005826 | 17 | 344 | 12.9 | 19.3 | 0.00 | 0.00 | 0.00 | 85 | 1012.0 |
| 20260507005327 | 17 | 349 | 12.9 | 19.3 | 0.00 | 0.00 | 0.00 | 85 | 1011.7 |
| 20260507004829 | 17 | 312 | 8.0 | 17.7 | 0.00 | 0.00 | 0.00 | 85 | 1011.8 |
| 20260507004345 | 17 | 19 | 6.4 | 17.7 | 0.00 | 0.00 | 0.00 | 85 | 1011.7 |
| 20260507003829 | 17 | 323 | 8.0 | 24.1 | 0.00 | 0.00 | 0.00 | 85 | 1011.6 |
| 20260507003331 | 17 | 21 | 14.5 | 24.1 | 0.00 | 0.00 | 0.00 | 85 | 1011.5 |
| 20260507002834 | 17 | 344 | 12.9 | 22.5 | 0.00 | 0.00 | 0.00 | 85 | 1011.6 |
| 20260507002318 | 17 | 327 | 12.9 | 27.4 | 0.00 | 0.00 | 0.00 | 85 | 1011.6 |
| 20260507001824 | 17 | 318 | 16.1 | 27.4 | 0.00 | 0.00 | 0.00 | 85 | 1011.6 |
| 20260507001326 | 17 | 360 | 14.5 | 24.1 | 0.00 | 0.00 | 0.00 | 85 | 1011.6 |
| 20260507000834 | 17 | 341 | 16.1 | 24.1 | 0.00 | 0.00 | 0.00 | 85 | 1011.6 |
| 20260507000321 | 17 | 305 | 11.3 | 24.1 | 0.00 | 0.00 | 0.00 | 85 | 1011.4 |
| 20260506235825 | 17 | 331 | 12.9 | 19.3 | 0.00 | 0.00 | 0.00 | 85 | 1011.3 |
| 20260506235328 | 18 | 329 | 11.3 | 24.1 | 0.00 | 0.00 | 0.00 | 85 | 1011.3 |
| 20260506234841 | 18 | 348 | 16.1 | 24.1 | 0.00 | 0.00 | 0.00 | 85 | 1011.2 |
| 20260506234326 | 18 | 298 | 12.9 | 22.5 | 0.00 | 0.00 | 0.00 | 85 | 1011.1 |
| 20260506233831 | 18 | 28 | 11.3 | 25.7 | 0.00 | 0.00 | 0.00 | 85 | 1011.2 |
| 20260506233319 | 18 | 333 | 16.1 | 25.7 | 0.00 | 0.00 | 0.00 | 85 | 1011.2 |
| 20260506232828 | 18 | 355 | 17.7 | 25.7 | 0.00 | 0.00 | 0.00 | 85 | 1011.0 |
| 20260506232332 | 18 | 263 | 17.7 | 24.1 | 0.00 | 0.00 | 0.00 | 85 | 1011.1 |
| 20260506231840 | 19 | 360 | 12.9 | 24.1 | 0.00 | 0.00 | 0.00 | 85 | 1011.1 |
| 20260506231331 | 19 | 327 | 16.1 | 24.1 | 0.00 | 0.00 | 0.00 | 85 | 1011.0 |
| 20260506230835 | 19 | 355 | 16.1 | 24.1 | 0.00 | 0.00 | 0.00 | 85 | 1011.1 |
| 20260506230343 | 19 | 17 | 9.7 | 20.9 | 0.00 | 0.00 | 0.00 | 86 | 1011.1 |
| 20260506225829 | 19 | 355 | 12.9 | 20.9 | 0.00 | 0.00 | 0.00 | 86 | 1011.0 |
| 20260506225333 | 20 | 325 | 12.9 | 20.9 | 0.00 | 0.00 | 0.00 | 86 | 1011.0 |
| 20260506224822 | 20 | 317 | 9.7 | 29.0 | 0.00 | 0.00 | 0.00 | 86 | 1010.9 |
| 20260506224328 | 20 | 336 | 12.9 | 27.4 | 0.00 | 0.00 | 0.00 | 86 | 1010.9 |
| 20260506223829 | 20 | 338 | 8.0 | 29.0 | 0.00 | 0.00 | 0.00 | 86 | 1010.9 |
| 20260506223336 | 20 | 355 | 11.3 | 29.0 | 0.00 | 0.00 | 0.00 | 86 | 1010.9 |
| 20260506222824 | 20 | 355 | 14.5 | 25.7 | 0.00 | 0.00 | 0.00 | 86 | 1010.8 |
| 20260506222326 | 20 | 340 | 14.5 | 25.7 | 0.00 | 0.00 | 0.00 | 86 | 1010.8 |
| 20260506221839 | 20 | 323 | 14.5 | 25.7 | 0.00 | 0.00 | 0.00 | 86 | 1010.8 |
| 20260506221318 | 21 | 317 | 12.9 | 24.1 | 0.00 | 0.00 | 0.00 | 86 | 1010.7 |
| 20260506220850 | 21 | 292 | 8.0 | 20.9 | 0.00 | 0.00 | 0.00 | 87 | 1010.6 |
| 20260506220336 | 21 | 279 | 9.7 | 24.1 | 0.00 | 0.00 | 0.00 | 87 | 1010.7 |
| 20260506215846 | 21 | 294 | 12.9 | 25.7 | 0.00 | 0.00 | 0.00 | 87 | 1010.7 |
| 20260506215329 | 21 | 321 | 14.5 | 25.7 | 0.00 | 0.00 | 0.00 | 86 | 1010.5 |
| 20260506214818 | 21 | 277 | 12.9 | 27.4 | 0.00 | 0.00 | 0.00 | 87 | 1010.5 |
| 20260506214346 | 21 | 330 | 12.9 | 27.4 | 0.00 | 0.00 | 0.00 | 87 | 1010.4 |
| 20260506213851 | 21 | 11 | 14.5 | 30.6 | 0.00 | 0.00 | 0.00 | 87 | 1010.5 |
| 20260506213337 | 21 | 309 | 14.5 | 30.6 | 0.00 | 0.00 | 0.00 | 87 | 1010.5 |
| 20260506212825 | 21 | 307 | 14.5 | 25.7 | 0.00 | 0.00 | 0.00 | 87 | 1010.4 |
| 20260506212327 | 21 | 347 | 12.9 | 25.7 | 0.00 | 0.00 | 0.00 | 87 | 1010.6 |
| 20260506211833 | 21 | 304 | 11.3 | 27.4 | 0.00 | 0.00 | 0.00 | 87 | 1010.7 |
| 20260506211346 | 21 | 328 | 16.1 | 27.4 | 0.00 | 0.00 | 0.00 | 87 | 1010.6 |
| 20260506210831 | 21 | 14 | 16.1 | 24.1 | 0.00 | 0.00 | 0.00 | 87 | 1010.6 |
| 20260506210339 | 21 | 317 | 12.9 | 25.7 | 0.00 | 0.00 | 0.00 | 87 | 1010.5 |
| 20260506205828 | 21 | 348 | 14.5 | 25.7 | 0.00 | 0.00 | 0.00 | 87 | 1010.6 |
| 20260506205350 | 22 | 294 | 11.3 | 27.4 | 0.00 | 0.00 | 0.00 | 87 | 1010.5 |
| 20260506204817 | 22 | 346 | 16.1 | 27.4 | 0.00 | 0.00 | 0.00 | 87 | 1010.4 |
| 20260506204347 | 22 | 317 | 11.3 | 25.7 | 0.00 | 0.00 | 0.00 | 87 | 1010.4 |
| 20260506203839 | 22 | 321 | 14.5 | 22.5 | 0.00 | 0.00 | 0.00 | 87 | 1010.5 |
| 20260506203322 | 22 | 360 | 16.1 | 20.9 | 0.00 | 0.00 | 0.00 | 87 | 1010.4 |
| 20260506202826 | 22 | 323 | 12.9 | 22.5 | 0.00 | 0.00 | 0.00 | 88 | 1010.3 |
| 20260506202329 | 23 | 300 | 11.3 | 22.5 | 0.00 | 0.00 | 0.00 | 87 | 1010.2 |
| 20260506201837 | 23 | 322 | 9.7 | 22.5 | 0.00 | 0.00 | 0.00 | 88 | 1010.2 |
| 20260506201321 | 23 | 327 | 9.7 | 19.3 | 0.00 | 0.00 | 0.00 | 88 | 1010.3 |
| 20260506200835 | 23 | 315 | 4.8 | 17.7 | 0.00 | 0.00 | 0.00 | 88 | 1010.3 |
| 20260506200343 | 23 | 336 | 8.0 | 22.5 | 0.00 | 0.00 | 0.00 | 88 | 1010.2 |
| 20260506195829 | 23 | 329 | 9.7 | 22.5 | 0.00 | 0.00 | 0.00 | 88 | 1010.3 |
| 20260506195336 | 23 | 317 | 6.4 | 19.3 | 0.00 | 0.00 | 0.00 | 88 | 1010.2 |
| 20260506194843 | 23 | 305 | 8.0 | 19.3 | 0.00 | 0.00 | 0.00 | 88 | 1010.2 |
| 20260506194327 | 24 | 298 | 11.3 | 19.3 | 0.00 | 0.00 | 0.00 | 88 | 1010.3 |
| 20260506193836 | 24 | 344 | 8.0 | 19.3 | 0.00 | 0.00 | 0.00 | 89 | 1010.3 |
| 20260506193326 | 23 | 325 | 4.8 | 14.5 | 0.00 | 0.00 | 0.00 | 89 | 1010.3 |
| 20260506192900 | 23 | 348 | 4.8 | 12.9 | 0.00 | 0.00 | 0.00 | 89 | 1010.3 |
| 20260506192346 | 23 | 350 | 4.8 | 12.9 | 0.00 | 0.00 | 0.00 | 88 | 1010.2 |
| 20260506191829 | 23 | 59 | 1.6 | 6.4 | 0.00 | 0.00 | 0.00 | 89 | 1010.1 |
| 20260506191332 | 22 | 59 | 1.6 | 11.3 | 0.00 | 0.00 | 0.00 | 89 | 1010.1 |
| 20260506190822 | 22 | 29 | 6.4 | 11.3 | 0.00 | 0.00 | 0.00 | 89 | 1010.1 |
| 20260506190325 | 22 | 71 | 6.4 | 12.9 | 0.00 | 0.00 | 0.00 | 89 | 1010.1 |